Al Hoceima, Morocco

2:54 AM WET on May 22, 2018 (GMT +0000)
Al Hoceima

Weather History for GMTA - March, 2013

Change the Weather History Date:

Monday, March 25, 2013

  Actual Average Record
Temperature  
Mean Temperature 59 °F -  
Max Temperature 68 °F 65 °F 80 °F (1997)
Min Temperature 50 °F 52 °F 42 °F (2017)
Degree Days  
Heating Degree Days 6    
Growing Degree Days 9 (Base 50)    
Moisture  
Dew Point 51 °F    
Average Humidity 66    
Maximum Humidity 77    
Minimum Humidity 55    
Precipitation  
Precipitation 0.00 in - - ()
Sea Level Pressure  
Sea Level Pressure 30.05 in    
Wind  
Wind Speed 6 mph ()    
Max Wind Speed 14 mph    
Max Gust Speed -    
Visibility 6.3 miles    
Events      
Averages and records for this station are not official NWS values.
T = Trace of Precipitation, MM = Missing Value Source: Averaged Metar Reports

Daily Weather History Graph

Daily Weather History Graph

Search for Another Location

Airport or City:

Astronomy

Mar. 25, 2013 Rise Set
Actual Time 6:11 AM WET 6:31 PM WET
Civil Twilight 5:46 AM WET 6:56 PM WET
Nautical Twilight 5:16 AM WET 7:26 PM WET
Astronomical Twilight 4:46 AM WET 7:56 PM WET
Moon 4:50 PM WET (3/25) 4:43 AM WET (3/25)
Length of Visible Light 13h 10m
Length of Day
12h 19m
Waxing Gibbous, 96% of the Moon is Illuminated
Mar 25
Waxing Gibbous
Mar 27
Full
Apr 3
Last Quarter
Apr 10
New
Apr 18
First Quarter

Hourly Weather History & Observations

Time (WET) Temp. Dew Point Humidity Pressure Visibility Wind Dir Wind Speed Gust Speed Precip Events Conditions
6:00 AM 52 °F 45 °F 68% 30.06 in 6 mi WSW 6.9 mph - -   Mostly Cloudy
6:00 AM 51.8 °F 44.6 °F 76% 30.04 in 6.2 mi WSW 6.9 mph - N/A   Scattered Clouds
7:00 AM 53.6 °F 46.4 °F 77% 30.06 in 6.2 mi South 4.6 mph - N/A   Scattered Clouds
8:00 AM 59.0 °F 50.0 °F 72% 30.06 in 6.2 mi SW 4.6 mph - N/A   Scattered Clouds
9:00 AM 65 °F 53 °F 55% 30.09 in 6 mi SSW 6.9 mph - -   Scattered Clouds
9:00 AM 64.4 °F 51.8 °F 64% 30.06 in 6.2 mi WNW 6.9 mph - N/A   Partly Cloudy
10:00 AM 66.2 °F 50.0 °F 56% 30.06 in 6.2 mi East 2.3 mph - N/A   Partly Cloudy
11:00 AM 66.2 °F 53.6 °F 64% 30.06 in 6.2 mi NNE 11.5 mph - N/A   Scattered Clouds
12:00 PM 64 °F 54 °F 61% 30.07 in 6 mi North 13.8 mph - -   Scattered Clouds
12:00 PM 64.4 °F 53.6 °F 68% 30.06 in 6.2 mi North 13.8 mph - N/A   Mostly Cloudy
1:00 PM 64.4 °F 53.6 °F 68% 30.06 in 6.2 mi NNW 9.2 mph - N/A   Mostly Cloudy
2:00 PM 64.4 °F 53.6 °F 68% 30.04 in 6.2 mi NNW 9.2 mph - N/A   Mostly Cloudy
3:00 PM 65 °F 53 °F 56% 30.04 in 6 mi North 6.9 mph - -   Scattered Clouds
3:00 PM 66.2 °F 53.6 °F 64% 30.04 in 6.2 mi North 4.6 mph - N/A   Mostly Cloudy
4:00 PM 66.2 °F 51.8 °F 60% 30.01 in 6.2 mi North 11.5 mph - N/A   Mostly Cloudy
5:00 PM 66.2 °F 51.8 °F 60% 30.01 in 6.2 mi NNW 9.2 mph - N/A   Mostly Cloudy
6:00 PM 65 °F 53 °F 56% 30.04 in 6 mi NW 9.2 mph - -   Scattered Clouds
6:00 PM 64.4 °F 53.6 °F 68% 30.04 in 6.2 mi NW 4.6 mph - N/A   Mostly Cloudy
7:00 PM 62.6 °F 51.8 °F 68% 30.04 in 6.2 mi North 2.3 mph - N/A   Mostly Cloudy
8:00 PM 60.8 °F 51.8 °F 72% 30.04 in - West 2.3 mph - N/A   Clear
9:00 PM 58 °F 51 °F 69% 30.04 in 9 mi SSE 2.3 mph - -   Mostly Cloudy
9:00 PM 57.2 °F 50.0 °F 77% 30.04 in - SSE 2.3 mph - N/A   Clear